Dewpoint
37 33 33 34 33 33 35 36 37 36 36 36 37 38 39 37 38 37 39 37 38 39
35 34 32 35 34 35 35 35 35 36 36 36 36 37 38 40 40 39 40 40 39 39
33 33 33 32 33 35 36 36 35 34 34 34 35 36 36 37 39 38 39 40 39 39
33 34 34 34 36 36 36 36 35 35 34 34 34 34 34 34 35 36 36 37 38 39
33 35 35 35 34 35 35 36 36 36 35 34 34 34 33 32 34 33 35 34 35 36
35 34 33 34 35 35 36 37 37 37 36 35 36 34 34 34 34 34 34 35 34 34
34 34 34 34 35 37 37 37 37 36 36 35 35 35 35 35 34 34 34 34 34 35
33 34 35 36 36 36 36 36 35 36 35 34 34 34 34 35 34 34 33 33 34 35
33 34 35 36 36 36 35 35 34 34 34 33 33 35 36 34 33 34 33 33 34 35
33 34 35 35 35 34 35 34 34 34 33 33 33 35 35 35 33 33 33 33 34 34
33 34 35 36 34 34 34 33 34 33 33 33 33 35 35 35 33 33 33 33 34 33
34 34 34 35 34 35 34 34 34 34 33 32 33 34 34 33 32 32 33 32 34 35
34 34 34 35 36 34 33 33 32 34 34 34 34 35 34 33 32 31 32 34 35 36
34 34 34 35 35 35 34 32 31 33 33 34 34 35 34 35 34 32 32 33 33 35
Lifted_Index
12 13 13 14 14 15 15 15 15 15 15 15 15 15 14 13 12 12 12 12 12 12
13 14 14 15 15 15 15 15 15 15 15 15 15 15 14 13 13 12 12 12 12 12
15 15 15 15 15 15 15 14 14 15 15 14 14 14 14 13 13 13 13 12 12 12
15 15 15 15 14 14 14 13 13 13 13 13 13 13 13 13 13 13 13 13 13 13
15 15 14 14 13 13 12 12 12 12 12 13 13 13 13 13 13 13 13 14 14 14
14 14 13 12 12 12 12 12 12 12 12 12 13 13 13 13 13 13 13 14 14 15
13 12 12 11 11 11 11 12 12 12 12 12 12 13 13 13 13 13 13 13 14 14
12 12 11 11 11 11 11 12 12 12 12 12 12 12 12 13 13 13 13 13 13 14
12 11 11 11 11 11 11 12 12 13 12 12 11 11 11 11 11 12 12 13 13 13
11 11 11 11 11 11 12 12 12 12 11 11 10 9 9 10 10 11 12 12 13 13
10 10 11 11 11 11 12 12 11 11 10 9 9 9 9 9 9 10 11 12 12 13
9 10 10 11 11 11 11 10 10 9 9 9 9 9 9 9 10 10 11 11 12 13
9 10 10 11 11 10 10 9 9 9 9 9 9 9 9 9 10 10 11 11 12 13
9 10 11 11 11 10 9 9 9 9 9 9 9 9 9 10 10 11 11 11 12 13